Location: Frydek-Mistek
(49.6830°N, 18.3330°E)
Time: 12:39:42
(UTC+01:00)

Courier 1B Rocket - All Passes

Search period start: 25 March 2017 00:00
Search period end: 04 April 2017 01:00
Orbit: 920 x 1202 km, 28.2° (Epoch: 23 March)

Date Brightness Start Highest point End Pass type
(mag) Time Alt. Az. Time Alt. Az. Time Alt. Az.
01 Apr - 02:22:59 10° SSW 02:24:22 11° S 02:25:45 10° S night (unlit)
02 Apr - 01:22:15 10° S 01:23:47 11° S 01:25:18 10° SSE night (unlit)
03 Apr - 00:22:25 10° S 00:23:11 10° S 00:23:57 10° SSE night (unlit)
03 Apr - 02:13:37 10° SSW 02:15:11 11° S 02:16:43 10° S night (unlit)
